Вернуться в каталог

FENGYUN 1C DEB

АктивенSSO
NORAD 31829·DEBRIS·🇨🇳 China

Запущен May 10, 1999 с Taiyuan Satellite Launch Center

Loading…

Ближайшие Пролёты (ближайшие 24 часа)

TLE

СвежийSource: Space-Track

Эпоха: Sep 13, 2026, 06:16 UTC

1 31829U 99025CHT 26256.26132152  .00000333  00000-0  27534-3 0  9994
2 31829  98.8670  57.4084 0169388 136.2338 348.2367 13.88928567979580

Отслеживайте FENGYUN 1C DEB в реальном времени с AllMySat

Download on the App Store